SL-14 DEB, 45280

Orbit data source: Space-Track

SL-14 DEB, 45280 is space debris in LEO originally from a launch on Thu, 15 Aug 1991 UTC launched from the Plesetsk Missile And Space Complex (PKMTR). Debris objects in space refer to the collection of defunct objects orbiting the Earth. Examples of debris include non-operational satellites, rocket bodies, and fragments generated from explosions, collisions, or faulty payload assembly.

Loading next visibility...
Identifier
45280, 1991-056S
Orbit
LEO
Country
Flag of CISCIS
Related business
Manufacturer
Unknown
Mission
Spacecraft
Bus & Motor
Unknown
Mass
Unknown
Launch date (UTC)
1991-08-15 (34 years ago)
Launch vehicle
Unknown
Launch site
Plesetsk Missile And Space Complex (PKMTR)
Object type
Payload
Rocket body
Debris
Shape & HBR
Unknown shape, 0.1 m
Radar Cross Section
Small (<0.1 m²)

Expand to show TLE details & history
Last TLE update: 19 hours ago

TLE from 19 hours ago
0 SL-14 DEB
1 45280U 91056S   25286.85365677  .00001501  00000-0  36332-2 0  9996
2 45280  82.5877 318.1918 0018832 187.6932 172.3907 13.21216394272571
Epoch: 2025-10-13T20:29Z
TLE epoch observation values (Epoch: 2025-10-13T20:29:15.944Z)
Latitude
-0.00003°
Longitude
-11.77511°
Altitude
1,197.003 km
Speed
7.249 km/s
True Right ascension
21h 12m 46s
True Declination
0° 00' 00"
Sunlit
Object was in daylight at epoch
Visualization orbit readout
Latitude
Unknown
Longitude
Unknown
Altitude
Unknown
Speed
Unknown
Apparent Right ascension
Unknown
Apparent Declination
Unknown
Sunlit
N/A
Visualization observer readout
Local Sidereal Time
10:00:25
Azimuth
Unknown
Elevation
Unknown
Doppler factor
Unknown
Orbital elements
Apogee altitude
1,191.543 km
Perigee altitude
1,163.086 km
Semi-major axis
7,555.452 km
Eccentricity
0.00188
Inclination
82.5877°
RAAN
318.1918°
Arg. of periapsis
187.6932°
True anomaly
172.41921°
Mean anomaly
172.3907°
Eccentric anomaly
172.40496°
Mean motion
3.30486 °/min
Orbital period
108.93 mins
BSTAR
0.0036332
Loading maneuver chart data...
Computing Atmospheric mass density...
Loading historical data...
Loading historical data...
Loading historical data...
Loading historical data...
Loading historical data...
Loading historical data...
Loading historical data...

Documentation

Showing up to 5 results
|